Time,TemperatureF,DewpointF,PressureIn,WindDirection,WindDirectionDegrees,WindSpeedMPH,WindSpeedGustMPH,Humidity,HourlyPrecipIn,Conditions,Clouds,dailyrainin,SoftwareType,DateUTC
2013-01-04 00:01:00,71.8,65.3,30.07,SW,225,1.1,1.1,80,0.00,CLR,,0.00,WeatherDisplay:10.37,2013-01-04 05:01:00,
2013-01-04 00:02:00,71.8,65.3,30.07,SW,225,1.1,1.1,80,0.00,CLR,,0.00,WeatherDisplay:10.37,2013-01-04 05:02:00,
2013-01-04 00:03:00,71.8,65.3,30.07,West,270,0.0,0.1,80,0.00,CLR,,0.00,WeatherDisplay:10.37,2013-01-04 05:03:00,
2013-01-04 00:08:00,71.6,65.1,30.07,NW,315,0.0,0.1,80,0.00,CLR,,0.00,WeatherDisplay:10.37,2013-01-04 05:08:00,
2013-01-04 00:13:00,71.4,64.9,30.07,NW,315,0.0,0.0,80,0.00,CLR,,0.00,WeatherDisplay:10.37,2013-01-04 05:13:00,
2013-01-04 00:18:00,71.4,64.9,30.07,West,270,0.0,0.0,80,0.00,CLR,,0.00,WeatherDisplay:10.37,2013-01-04 05:18:00,
2013-01-04 00:23:00,71.4,64.9,30.07,NW,315,0.0,0.0,80,0.00,CLR,,0.00,WeatherDisplay:10.37,2013-01-04 05:23:00,
2013-01-04 00:28:00,71.2,64.8,30.06,WNW,292,0.0,0.0,80,0.00,CLR,,0.00,WeatherDisplay:10.37,2013-01-04 05:28:00,
2013-01-04 00:33:00,71.1,64.6,30.06,West,270,0.0,0.0,80,0.00,CLR,,0.00,WeatherDisplay:10.37,2013-01-04 05:33:00,
2013-01-04 00:38:00,70.9,64.4,30.06,NW,315,0.0,0.0,80,0.00,CLR,,0.00,WeatherDisplay:10.37,2013-01-04 05:38:00,
2013-01-04 00:43:00,70.9,64.4,30.06,NW,315,0.0,0.0,80,0.00,CLR,,0.00,WeatherDisplay:10.37,2013-01-04 05:43:00,
2013-01-04 00:48:00,70.7,64.2,30.06,West,270,0.0,0.0,80,0.00,CLR,,0.00,WeatherDisplay:10.37,2013-01-04 05:48:00,
2013-01-04 00:53:00,70.9,64.8,30.06,SW,225,0.0,0.0,81,0.00,CLR,,0.00,WeatherDisplay:10.37,2013-01-04 05:53:00,
2013-01-04 00:58:00,70.7,64.2,30.06,SW,225,0.0,0.0,80,0.00,CLR,,0.00,WeatherDisplay:10.37,2013-01-04 05:58:00,
2013-01-04 01:03:00,70.5,64.0,30.06,SSW,202,0.0,0.0,80,0.00,CLR,,0.00,WeatherDisplay:10.37,2013-01-04 06:03:00,
2013-01-04 01:08:00,70.2,63.7,30.06,NW,315,0.0,0.0,80,0.00,CLR,,0.00,WeatherDisplay:10.37,2013-01-04 06:08:00,
2013-01-04 01:13:00,70.3,64.2,30.06,NW,315,0.0,0.0,81,0.00,CLR,,0.00,WeatherDisplay:10.37,2013-01-04 06:13:00,
2013-01-04 01:18:00,70.2,64.1,30.06,NW,315,0.0,0.0,81,0.00,CLR,,0.00,WeatherDisplay:10.37,2013-01-04 06:18:00,
2013-01-04 01:23:00,70.2,64.1,30.06,NW,315,0.0,0.0,81,0.00,CLR,,0.00,WeatherDisplay:10.37,2013-01-04 06:23:00,
2013-01-04 01:28:00,70.0,63.9,30.06,West,270,0.0,0.0,81,0.00,CLR,,0.00,WeatherDisplay:10.37,2013-01-04 06:28:00,
2013-01-04 01:33:00,69.8,63.7,30.06,WNW,292,0.0,0.0,81,0.00,CLR,,0.00,WeatherDisplay:10.37,2013-01-04 06:33:00,
2013-01-04 01:38:00,70.0,63.9,30.06,WNW,292,0.0,0.0,81,0.00,CLR,,0.00,WeatherDisplay:10.37,2013-01-04 06:38:00,
2013-01-04 01:43:00,70.0,63.9,30.06,NNW,338,0.0,0.0,81,0.00,CLR,,0.00,WeatherDisplay:10.37,2013-01-04 06:43:00,
2013-01-04 01:48:00,70.0,63.9,30.06,NNW,338,0.0,0.0,81,0.00,CLR,,0.00,WeatherDisplay:10.37,2013-01-04 06:48:00,
2013-01-04 01:53:00,69.6,63.5,30.06,NNW,338,0.0,0.0,81,0.00,CLR,,0.00,WeatherDisplay:10.37,2013-01-04 06:53:00,
2013-01-04 01:58:00,69.6,63.2,30.06,South,180,0.0,0.0,80,0.00,CLR,,0.00,WeatherDisplay:10.37,2013-01-04 06:58:00,
2013-01-04 02:03:00,69.6,63.2,30.06,South,180,0.0,0.0,80,0.00,CLR,,0.00,WeatherDisplay:10.37,2013-01-04 07:03:00,
2013-01-04 02:08:00,69.6,63.2,30.05,NW,315,0.0,0.0,80,0.00,CLR,,0.00,WeatherDisplay:10.37,2013-01-04 07:08:00,
2013-01-04 02:13:00,69.6,63.2,30.05,NW,315,0.0,0.0,80,0.00,CLR,,0.00,WeatherDisplay:10.37,2013-01-04 07:13:00,
2013-01-04 02:18:00,69.4,63.4,30.05,NW,315,0.0,0.0,81,0.00,CLR,,0.00,WeatherDisplay:10.37,2013-01-04 07:18:00,
2013-01-04 02:23:00,69.4,63.4,30.05,NNW,338,0.0,0.0,81,0.00,CLR,,0.00,WeatherDisplay:10.37,2013-01-04 07:23:00,
2013-01-04 02:28:00,69.3,63.2,30.06,NNW,338,0.0,0.0,81,0.00,CLR,,0.00,WeatherDisplay:10.37,2013-01-04 07:28:00,
2013-01-04 02:33:00,69.3,63.2,30.06,NNE,22,0.0,0.0,81,0.00,CLR,,0.00,WeatherDisplay:10.37,2013-01-04 07:33:00,
2013-01-04 02:38:00,69.3,63.2,30.06,NW,315,0.0,0.0,81,0.00,CLR,,0.00,WeatherDisplay:10.37,2013-01-04 07:38:00,
2013-01-04 02:43:00,69.3,63.2,30.06,NNE,22,0.0,0.0,81,0.00,CLR,,0.00,WeatherDisplay:10.37,2013-01-04 07:43:00,
2013-01-04 02:48:00,69.1,63.0,30.05,NW,315,0.0,0.0,81,0.00,CLR,,0.00,WeatherDisplay:10.37,2013-01-04 07:48:00,
2013-01-04 02:53:00,69.1,63.0,30.05,NNW,338,0.0,0.0,81,0.00,CLR,,0.00,WeatherDisplay:10.37,2013-01-04 07:53:00,
2013-01-04 02:58:00,69.1,63.0,30.05,NE,45,0.0,0.0,81,0.00,CLR,,0.00,WeatherDisplay:10.37,2013-01-04 07:58:00,
2013-01-04 03:03:00,69.3,63.2,30.05,NNW,338,0.0,0.0,81,0.00,CLR,,0.00,WeatherDisplay:10.37,2013-01-04 08:03:00,
2013-01-04 03:08:00,69.1,63.4,30.05,WNW,292,0.0,0.0,82,0.00,CLR,,0.00,WeatherDisplay:10.37,2013-01-04 08:08:00,
2013-01-04 03:13:00,69.3,63.2,30.05,NW,315,0.0,0.0,81,0.00,CLR,,0.00,WeatherDisplay:10.37,2013-01-04 08:13:00,
2013-01-04 03:18:00,69.3,63.2,30.05,NW,315,0.0,0.0,81,0.00,CLR,,0.00,WeatherDisplay:10.37,2013-01-04 08:18:00,
2013-01-04 03:23:00,69.1,63.0,30.05,NNW,338,0.0,0.0,81,0.00,CLR,,0.00,WeatherDisplay:10.37,2013-01-04 08:23:00,
2013-01-04 03:28:00,68.9,63.2,30.05,North,0,0.0,0.0,82,0.00,CLR,,0.00,WeatherDisplay:10.37,2013-01-04 08:28:00,
2013-01-04 03:34:00,68.9,63.2,30.05,NNW,338,0.0,0.0,82,0.00,CLR,,0.00,WeatherDisplay:10.37,2013-01-04 08:34:00,
2013-01-04 03:39:00,68.9,63.2,30.05,NNE,22,0.0,0.0,82,0.00,CLR,,0.00,WeatherDisplay:10.37,2013-01-04 08:39:00,
2013-01-04 03:44:00,68.9,63.2,30.05,NNW,338,0.0,0.0,82,0.00,CLR,,0.00,WeatherDisplay:10.37,2013-01-04 08:44:00,
2013-01-04 03:49:00,68.7,63.0,30.05,NW,315,0.0,0.0,82,0.00,CLR,,0.00,WeatherDisplay:10.37,2013-01-04 08:49:00,
2013-01-04 03:54:00,68.7,63.0,30.05,NNW,338,0.0,0.0,82,0.00,CLR,,0.00,WeatherDisplay:10.37,2013-01-04 08:54:00,
2013-01-04 03:59:00,68.7,63.0,30.05,West,270,1.1,0.0,82,0.00,CLR,,0.00,WeatherDisplay:10.37,2013-01-04 08:59:00,
2013-01-04 04:04:00,68.7,63.0,30.05,North,0,0.0,0.0,82,0.00,CLR,,0.00,WeatherDisplay:10.37,2013-01-04 09:04:00,
2013-01-04 04:09:00,68.7,63.0,30.05,NNW,338,0.0,0.0,82,0.00,CLR,,0.00,WeatherDisplay:10.37,2013-01-04 09:09:00,
2013-01-04 04:14:00,68.7,63.0,30.05,NNW,338,0.0,0.0,82,0.00,CLR,,0.00,WeatherDisplay:10.37,2013-01-04 09:14:00,
2013-01-04 04:19:00,68.7,63.0,30.05,NNW,338,0.0,0.0,82,0.00,CLR,,0.00,WeatherDisplay:10.37,2013-01-04 09:19:00,
2013-01-04 04:24:00,68.9,63.2,30.05,NNE,22,0.0,0.0,82,0.00,CLR,,0.00,WeatherDisplay:10.37,2013-01-04 09:24:00,
2013-01-04 04:29:00,68.7,63.0,30.05,NNE,22,0.0,0.0,82,0.00,CLR,,0.00,WeatherDisplay:10.37,2013-01-04 09:29:00,
2013-01-04 04:34:00,68.5,62.8,30.05,NE,45,0.0,0.0,82,0.00,CLR,,0.00,WeatherDisplay:10.37,2013-01-04 09:34:00,
2013-01-04 04:39:00,68.7,63.0,30.05,NNE,22,0.0,0.0,82,0.00,CLR,,0.00,WeatherDisplay:10.37,2013-01-04 09:39:00,
2013-01-04 04:44:00,68.5,62.8,30.05,NNE,22,0.0,0.0,82,0.00,CLR,,0.00,WeatherDisplay:10.37,2013-01-04 09:44:00,
2013-01-04 04:49:00,68.5,62.8,30.05,NE,45,0.0,0.0,82,0.00,CLR,,0.00,WeatherDisplay:10.37,2013-01-04 09:49:00,
2013-01-04 04:54:00,68.5,62.8,30.05,NNE,22,0.0,0.0,82,0.00,CLR,,0.00,WeatherDisplay:10.37,2013-01-04 09:54:00,
2013-01-04 04:59:00,68.5,62.8,30.05,NNW,338,1.1,1.1,82,0.00,CLR,,0.00,WeatherDisplay:10.37,2013-01-04 09:59:00,
2013-01-04 05:04:00,68.5,62.8,30.05,NNE,22,0.0,0.0,82,0.00,CLR,,0.00,WeatherDisplay:10.37,2013-01-04 10:04:00,
2013-01-04 05:09:00,68.5,62.8,30.05,NNE,22,0.0,0.0,82,0.00,CLR,,0.00,WeatherDisplay:10.37,2013-01-04 10:09:00,
2013-01-04 05:14:00,68.5,62.8,30.05,NW,315,0.0,0.0,82,0.00,CLR,,0.00,WeatherDisplay:10.37,2013-01-04 10:14:00,
2013-01-04 05:19:00,68.5,62.8,30.05,NNE,22,0.0,0.0,82,0.00,CLR,,0.00,WeatherDisplay:10.37,2013-01-04 10:19:00,
2013-01-04 05:24:00,68.5,62.8,30.05,WNW,292,0.0,0.0,82,0.00,CLR,,0.00,WeatherDisplay:10.37,2013-01-04 10:24:00,
2013-01-04 05:29:00,68.4,62.6,30.06,NNE,22,0.0,0.0,82,0.00,CLR,,0.00,WeatherDisplay:10.37,2013-01-04 10:29:00,
2013-01-04 05:34:00,68.4,62.6,30.06,NNE,22,0.0,0.0,82,0.00,CLR,,0.00,WeatherDisplay:10.37,2013-01-04 10:34:00,
2013-01-04 05:39:00,68.5,62.8,30.06,NE,45,0.0,0.0,82,0.00,CLR,,0.00,WeatherDisplay:10.37,2013-01-04 10:39:00,
2013-01-04 05:44:00,68.5,62.8,30.06,NNE,22,0.0,0.0,82,0.00,CLR,,0.00,WeatherDisplay:10.37,2013-01-04 10:44:00,
2013-01-04 05:49:00,68.5,62.8,30.06,NNE,22,0.0,0.0,82,0.00,CLR,,0.00,WeatherDisplay:10.37,2013-01-04 10:49:00,
2013-01-04 05:54:00,68.5,63.2,30.06,NNE,22,0.0,0.0,83,0.00,CLR,,0.00,WeatherDisplay:10.37,2013-01-04 10:54:00,
2013-01-04 05:59:00,68.4,62.6,30.06,NNE,22,0.0,0.0,82,0.00,CLR,,0.00,WeatherDisplay:10.37,2013-01-04 10:59:00,
2013-01-04 06:04:00,68.5,63.2,30.06,WNW,292,0.0,0.0,83,0.00,CLR,,0.00,WeatherDisplay:10.37,2013-01-04 11:04:00,
2013-01-04 06:09:00,68.5,63.2,30.06,NE,45,0.0,0.0,83,0.00,CLR,,0.00,WeatherDisplay:10.37,2013-01-04 11:09:00,
2013-01-04 06:14:00,68.2,62.5,30.06,NNE,22,0.0,0.0,82,0.00,CLR,,0.00,WeatherDisplay:10.37,2013-01-04 11:14:00,
2013-01-04 06:19:00,68.2,62.5,30.06,NE,45,0.0,0.0,82,0.00,CLR,,0.00,WeatherDisplay:10.37,2013-01-04 11:19:00,
2013-01-04 06:24:00,68.0,62.3,30.06,NNE,22,0.0,0.0,82,0.00,CLR,,0.00,WeatherDisplay:10.37,2013-01-04 11:24:00,
2013-01-04 06:29:00,68.0,62.6,30.07,NNE,22,0.0,0.0,83,0.00,CLR,,0.00,WeatherDisplay:10.37,2013-01-04 11:29:00,
2013-01-04 06:34:00,68.0,62.6,30.07,NNE,22,0.0,0.0,83,0.00,CLR,,0.00,WeatherDisplay:10.37,2013-01-04 11:34:00,
2013-01-04 06:39:00,68.2,62.8,30.07,NNE,22,0.0,0.0,83,0.00,CLR,,0.00,WeatherDisplay:10.37,2013-01-04 11:39:00,
2013-01-04 06:44:00,68.0,62.6,30.07,NNE,22,0.0,0.0,83,0.00,CLR,,0.00,WeatherDisplay:10.37,2013-01-04 11:44:00,
2013-01-04 06:49:00,68.4,63.0,30.07,NNE,22,0.0,0.0,83,0.00,CLR,,0.00,WeatherDisplay:10.37,2013-01-04 11:49:00,
2013-01-04 06:54:00,68.5,63.2,30.07,NE,45,0.0,0.0,83,0.00,CLR,,0.00,WeatherDisplay:10.37,2013-01-04 11:54:00,
2013-01-04 06:59:00,68.5,63.2,30.07,NE,45,0.0,0.0,83,0.00,CLR,,0.00,WeatherDisplay:10.37,2013-01-04 11:59:00,
2013-01-04 07:04:00,68.5,63.2,30.07,North,0,1.1,0.0,83,0.00,CLR,,0.00,WeatherDisplay:10.37,2013-01-04 12:04:00,
2013-01-04 07:09:00,68.5,63.2,30.07,NE,45,0.0,0.0,83,0.00,CLR,,0.00,WeatherDisplay:10.37,2013-01-04 12:09:00,
2013-01-04 07:14:00,68.5,63.2,30.07,NNE,22,0.0,0.0,83,0.00,CLR,,0.00,WeatherDisplay:10.37,2013-01-04 12:14:00,
2013-01-04 07:19:00,68.4,63.0,30.07,North,0,0.0,0.0,83,0.00,CLR,,0.00,WeatherDisplay:10.37,2013-01-04 12:19:00,
2013-01-04 07:24:00,68.5,63.2,30.07,NNE,22,0.0,0.0,83,0.00,CLR,,0.00,WeatherDisplay:10.37,2013-01-04 12:24:00,
2013-01-04 07:29:00,68.5,63.2,30.08,NE,45,0.0,0.0,83,0.00,CLR,,0.00,WeatherDisplay:10.37,2013-01-04 12:29:00,
2013-01-04 07:34:00,68.9,63.5,30.08,NE,45,0.0,0.0,83,0.00,CLR,,0.00,WeatherDisplay:10.37,2013-01-04 12:34:00,
2013-01-04 07:39:00,68.9,63.5,30.08,NNE,22,0.0,0.0,83,0.00,CLR,,0.00,WeatherDisplay:10.37,2013-01-04 12:39:00,
2013-01-04 07:44:00,69.1,63.7,30.08,NNE,22,0.0,0.1,83,0.00,CLR,,0.00,WeatherDisplay:10.37,2013-01-04 12:44:00,
2013-01-04 07:49:00,69.3,63.9,30.09,NNW,338,0.0,0.1,83,0.00,CLR,,0.00,WeatherDisplay:10.37,2013-01-04 12:49:00,
2013-01-04 07:54:00,69.6,64.2,30.09,NNW,338,0.0,0.0,83,0.00,CLR,,0.00,WeatherDisplay:10.37,2013-01-04 12:54:00,
2013-01-04 07:59:00,70.0,64.6,30.09,North,0,0.0,0.1,83,0.00,CLR,,0.00,WeatherDisplay:10.37,2013-01-04 12:59:00,
2013-01-04 08:04:00,70.0,64.6,30.09,NNW,338,1.4,1.4,83,0.00,CLR,,0.00,WeatherDisplay:10.37,2013-01-04 13:04:00,
2013-01-04 08:09:00,70.2,64.8,30.10,NNW,338,0.0,0.2,83,0.00,CLR,,0.00,WeatherDisplay:10.37,2013-01-04 13:09:00,
2013-01-04 08:14:00,70.3,64.9,30.10,NNE,22,0.0,0.3,83,0.00,CLR,,0.00,WeatherDisplay:10.37,2013-01-04 13:14:00,
2013-01-04 08:19:00,70.7,65.3,30.10,North,0,4.6,4.6,83,0.00,CLR,,0.00,WeatherDisplay:10.37,2013-01-04 13:19:00,
2013-01-04 08:24:00,70.9,65.5,30.10,NW,315,2.3,2.3,83,0.00,CLR,,0.00,WeatherDisplay:10.37,2013-01-04 13:24:00,
2013-01-04 08:29:00,71.1,65.6,30.11,North,0,1.5,1.5,83,0.00,CLR,,0.00,WeatherDisplay:10.37,2013-01-04 13:29:00,
2013-01-04 08:34:00,70.9,65.1,30.11,NNW,338,0.0,0.1,82,0.00,CLR,,0.00,WeatherDisplay:10.37,2013-01-04 13:34:00,
2013-01-04 08:39:00,71.2,65.5,30.11,NNE,22,0.0,0.1,82,0.00,CLR,,0.00,WeatherDisplay:10.37,2013-01-04 13:39:00,
2013-01-04 08:44:00,71.6,65.8,30.11,NNW,338,0.0,0.1,82,0.00,CLR,,0.00,WeatherDisplay:10.37,2013-01-04 13:44:00,
2013-01-04 08:49:00,72.0,66.2,30.11,NW,315,1.1,1.1,82,0.00,CLR,,0.00,WeatherDisplay:10.37,2013-01-04 13:49:00,
2013-01-04 08:54:00,72.1,66.3,30.11,North,0,4.4,4.4,82,0.00,CLR,,0.00,WeatherDisplay:10.37,2013-01-04 13:54:00,
2013-01-04 08:59:00,72.5,66.7,30.11,NE,45,3.5,3.5,82,0.00,CLR,,0.00,WeatherDisplay:10.37,2013-01-04 13:59:00,
2013-01-04 09:04:00,72.9,66.7,30.11,NNW,338,1.1,1.1,81,0.00,CLR,,0.00,WeatherDisplay:10.37,2013-01-04 14:04:00,
2013-01-04 09:09:00,73.0,66.9,30.11,NW,315,2.3,2.3,81,0.00,CLR,,0.00,WeatherDisplay:10.37,2013-01-04 14:09:00,
2013-01-04 09:14:00,73.4,67.2,30.11,NNE,22,0.0,0.7,81,0.00,CLR,,0.00,WeatherDisplay:10.37,2013-01-04 14:14:00,
2013-01-04 09:19:00,73.8,67.6,30.11,NE,45,2.3,2.3,81,0.00,CLR,,0.00,WeatherDisplay:10.37,2013-01-04 14:19:00,
2013-01-04 09:24:00,73.9,67.4,30.11,North,0,0.0,0.7,80,0.00,CLR,,0.00,WeatherDisplay:10.37,2013-01-04 14:24:00,
2013-01-04 09:29:00,74.3,67.7,30.11,NNE,22,0.0,0.5,80,0.00,CLR,,0.00,WeatherDisplay:10.37,2013-01-04 14:29:00,
2013-01-04 09:34:00,74.5,67.9,30.11,NE,45,2.3,2.3,80,0.00,CLR,,0.00,WeatherDisplay:10.37,2013-01-04 14:34:00,
2013-01-04 09:39:00,74.8,67.9,30.11,WSW,248,2.5,2.5,79,0.00,CLR,,0.00,WeatherDisplay:10.37,2013-01-04 14:39:00,
2013-01-04 09:44:00,74.8,67.9,30.11,NW,315,1.5,1.5,79,0.00,CLR,,0.00,WeatherDisplay:10.37,2013-01-04 14:44:00,
2013-01-04 09:49:00,75.0,68.1,30.11,NW,315,0.0,0.5,79,0.00,CLR,,0.00,WeatherDisplay:10.37,2013-01-04 14:49:00,
2013-01-04 09:54:00,75.4,68.4,30.11,NW,315,1.1,1.1,79,0.00,CLR,,0.00,WeatherDisplay:10.37,2013-01-04 14:54:00,
2013-01-04 09:59:00,75.4,68.0,30.11,NNE,22,2.3,2.3,78,0.00,CLR,,0.00,WeatherDisplay:10.37,2013-01-04 14:59:00,
2013-01-04 10:04:00,75.7,68.4,30.11,NE,45,0.0,0.5,78,0.00,CLR,,0.00,WeatherDisplay:10.37,2013-01-04 15:04:00,
2013-01-04 10:09:00,75.9,68.6,30.12,NNE,22,0.0,0.3,78,0.00,CLR,,0.00,WeatherDisplay:10.37,2013-01-04 15:09:00,
2013-01-04 10:14:00,76.1,68.4,30.12,NW,315,1.1,1.1,77,0.00,CLR,,0.00,WeatherDisplay:10.37,2013-01-04 15:14:00,
2013-01-04 10:19:00,76.3,68.5,30.12,NW,315,3.5,3.5,77,0.00,CLR,,0.00,WeatherDisplay:10.37,2013-01-04 15:19:00,
2013-01-04 10:24:00,76.6,68.9,30.12,WSW,248,1.1,1.1,77,0.00,CLR,,0.00,WeatherDisplay:10.37,2013-01-04 15:24:00,
2013-01-04 10:29:00,76.8,69.1,30.12,WNW,292,0.0,0.6,77,0.00,CLR,,0.00,WeatherDisplay:10.37,2013-01-04 15:29:00,
2013-01-04 10:34:00,77.4,69.2,30.12,NW,315,0.0,0.2,76,0.00,CLR,,0.00,WeatherDisplay:10.37,2013-01-04 15:34:00,
2013-01-04 10:39:00,77.9,69.7,30.12,NNE,22,2.9,2.9,76,0.00,CLR,,0.00,WeatherDisplay:10.37,2013-01-04 15:39:00,
2013-01-04 10:44:00,77.7,69.2,30.12,NW,315,0.0,0.7,75,0.00,CLR,,0.00,WeatherDisplay:10.37,2013-01-04 15:44:00,
2013-01-04 10:49:00,78.1,69.5,30.13,ENE,68,2.3,2.3,75,0.00,CLR,,0.00,WeatherDisplay:10.37,2013-01-04 15:49:00,
2013-01-04 10:55:00,78.6,70.0,30.13,NNW,338,5.1,5.1,75,0.00,CLR,,0.00,WeatherDisplay:10.37,2013-01-04 15:55:00,
2013-01-04 11:00:00,78.8,69.8,30.13,NW,315,3.6,3.6,74,0.00,CLR,,0.00,WeatherDisplay:10.37,2013-01-04 16:00:00,
2013-01-04 11:05:00,79.3,69.9,30.13,SE,135,4.6,4.6,73,0.00,CLR,,0.00,WeatherDisplay:10.37,2013-01-04 16:05:00,
2013-01-04 11:10:00,79.3,69.5,30.13,NW,315,2.6,2.6,72,0.00,CLR,,0.00,WeatherDisplay:10.37,2013-01-04 16:10:00,
2013-01-04 11:15:00,78.6,68.8,30.13,West,270,1.3,1.3,72,0.00,CLR,,0.00,WeatherDisplay:10.37,2013-01-04 16:15:00,
2013-01-04 11:20:00,78.8,69.0,30.13,WSW,248,1.1,1.1,72,0.00,CLR,,0.00,WeatherDisplay:10.37,2013-01-04 16:20:00,
2013-01-04 11:25:00,79.3,69.5,30.13,WNW,292,2.3,2.3,72,0.00,CLR,,0.00,WeatherDisplay:10.37,2013-01-04 16:25:00,
2013-01-04 11:30:00,79.3,69.1,30.12,NW,315,2.3,2.3,71,0.00,CLR,,0.00,WeatherDisplay:10.37,2013-01-04 16:30:00,
2013-01-04 11:35:00,79.5,69.3,30.12,WSW,248,2.3,2.3,71,0.00,CLR,,0.00,WeatherDisplay:10.37,2013-01-04 16:35:00,
2013-01-04 11:40:00,79.3,69.1,30.12,West,270,2.5,2.5,71,0.00,CLR,,0.00,WeatherDisplay:10.37,2013-01-04 16:40:00,
2013-01-04 11:45:00,78.8,69.0,30.12,West,270,1.6,1.6,72,0.00,CLR,,0.00,WeatherDisplay:10.37,2013-01-04 16:45:00,
2013-01-04 11:50:00,78.6,68.8,30.11,ENE,68,0.0,0.2,72,0.00,CLR,,0.00,WeatherDisplay:10.37,2013-01-04 16:50:00,
2013-01-04 11:55:00,78.3,68.5,30.11,NW,315,0.0,0.2,72,0.00,CLR,,0.00,WeatherDisplay:10.37,2013-01-04 16:55:00,
2013-01-04 12:00:00,78.3,68.1,30.11,NE,45,0.0,0.2,71,0.00,CLR,,0.00,WeatherDisplay:10.37,2013-01-04 17:00:00,
2013-01-04 12:05:00,78.3,68.5,30.11,NNE,22,0.0,0.2,72,0.00,CLR,,0.00,WeatherDisplay:10.37,2013-01-04 17:05:00,
2013-01-04 12:10:00,78.3,68.5,30.11,NNE,22,0.0,0.2,72,0.00,CLR,,0.00,WeatherDisplay:10.37,2013-01-04 17:10:00,
2013-01-04 12:15:00,78.3,68.5,30.11,NE,45,2.3,2.3,72,0.00,CLR,,0.00,WeatherDisplay:10.37,2013-01-04 17:15:00,
2013-01-04 12:20:00,78.3,68.5,30.11,NNW,338,2.6,2.6,72,0.00,CLR,,0.00,WeatherDisplay:10.37,2013-01-04 17:20:00,
2013-01-04 12:25:00,78.4,69.1,30.11,NNE,22,1.1,1.1,73,0.00,CLR,,0.00,WeatherDisplay:10.37,2013-01-04 17:25:00,
2013-01-04 12:30:00,78.4,68.7,30.10,SE,135,2.8,2.8,72,0.00,CLR,,0.00,WeatherDisplay:10.37,2013-01-04 17:30:00,
2013-01-04 12:35:00,78.6,68.8,30.10,NE,45,3.5,3.5,72,0.00,CLR,,0.00,WeatherDisplay:10.37,2013-01-04 17:35:00,
2013-01-04 12:40:00,78.3,68.9,30.10,ENE,68,1.1,1.8,73,0.00,CLR,,0.00,WeatherDisplay:10.37,2013-01-04 17:40:00,
2013-01-04 12:45:00,78.1,68.7,30.10,NE,45,2.3,2.3,73,0.00,CLR,,0.00,WeatherDisplay:10.37,2013-01-04 17:45:00,
2013-01-04 12:50:00,77.9,68.9,30.10,NE,45,4.6,4.6,74,0.00,CLR,,0.00,WeatherDisplay:10.37,2013-01-04 17:50:00,
2013-01-04 12:55:00,78.3,68.9,30.10,ENE,68,1.1,1.4,73,0.00,CLR,,0.00,WeatherDisplay:10.37,2013-01-04 17:55:00,
2013-01-04 13:00:00,78.3,68.9,30.10,NNE,22,2.3,2.3,73,0.00,CLR,,0.00,WeatherDisplay:10.37,2013-01-04 18:00:00,
2013-01-04 13:05:00,78.6,69.2,30.10,ENE,68,2.5,2.5,73,0.00,CLR,,0.00,WeatherDisplay:10.37,2013-01-04 18:05:00,
2013-01-04 13:10:00,78.4,69.1,30.09,SE,135,3.5,3.5,73,0.00,CLR,,0.00,WeatherDisplay:10.37,2013-01-04 18:10:00,
2013-01-04 13:15:00,78.8,69.4,30.09,NE,45,3.5,3.5,73,0.00,CLR,,0.00,WeatherDisplay:10.37,2013-01-04 18:15:00,
2013-01-04 13:20:00,79.2,69.4,30.09,NE,45,4.8,4.8,72,0.00,CLR,,0.00,WeatherDisplay:10.37,2013-01-04 18:20:00,
2013-01-04 13:25:00,79.2,69.4,30.09,NW,315,3.5,3.5,72,0.00,CLR,,0.00,WeatherDisplay:10.37,2013-01-04 18:25:00,
2013-01-04 13:30:00,78.8,69.0,30.08,NE,45,4.6,4.6,72,0.00,CLR,,0.00,WeatherDisplay:10.37,2013-01-04 18:30:00,
2013-01-04 13:35:00,79.0,69.2,30.08,SE,135,2.6,2.6,72,0.00,CLR,,0.00,WeatherDisplay:10.37,2013-01-04 18:35:00,
2013-01-04 13:40:00,79.0,69.2,30.08,NNW,338,2.3,2.3,72,0.00,CLR,,0.00,WeatherDisplay:10.37,2013-01-04 18:40:00,
2013-01-04 13:45:00,79.2,69.4,30.08,ENE,68,5.8,5.8,72,0.00,CLR,,0.00,WeatherDisplay:10.37,2013-01-04 18:45:00,
2013-01-04 13:50:00,79.2,69.4,30.08,NE,45,4.6,4.6,72,0.00,CLR,,0.00,WeatherDisplay:10.37,2013-01-04 18:50:00,
2013-01-04 13:55:00,79.3,69.5,30.08,ENE,68,2.4,2.4,72,0.00,CLR,,0.00,WeatherDisplay:10.37,2013-01-04 18:55:00,
2013-01-04 14:00:00,79.3,69.5,30.08,NW,315,3.5,3.5,72,0.00,CLR,,0.00,WeatherDisplay:10.37,2013-01-04 19:00:00,
2013-01-04 14:05:00,79.3,69.5,30.08,NE,45,6.9,6.9,72,0.00,CLR,,0.00,WeatherDisplay:10.37,2013-01-04 19:05:00,
2013-01-04 14:10:00,79.3,69.5,30.08,NE,45,2.4,3.0,72,0.00,CLR,,0.00,WeatherDisplay:10.37,2013-01-04 19:10:00,
2013-01-04 14:15:00,78.6,68.8,30.08,NE,45,4.6,4.6,72,0.00,CLR,,0.00,WeatherDisplay:10.37,2013-01-04 19:15:00,
2013-01-04 14:20:00,78.8,69.0,30.08,ENE,68,3.7,3.7,72,0.00,CLR,,0.00,WeatherDisplay:10.37,2013-01-04 19:20:00,
2013-01-04 14:25:00,78.4,68.7,30.08,ENE,68,4.6,4.6,72,0.00,CLR,,0.00,WeatherDisplay:10.37,2013-01-04 19:25:00,
2013-01-04 14:30:00,78.6,68.8,30.08,WSW,248,2.3,2.9,72,0.00,CLR,,0.00,WeatherDisplay:10.37,2013-01-04 19:30:00,
2013-01-04 14:35:00,78.4,68.7,30.08,ENE,68,4.6,4.6,72,0.00,CLR,,0.00,WeatherDisplay:10.37,2013-01-04 19:35:00,
2013-01-04 14:40:00,78.6,68.8,30.08,NW,315,5.8,5.8,72,0.00,CLR,,0.00,WeatherDisplay:10.37,2013-01-04 19:40:00,
2013-01-04 14:45:00,78.3,68.5,30.08,NNE,22,5.8,5.8,72,0.00,CLR,,0.00,WeatherDisplay:10.37,2013-01-04 19:45:00,
2013-01-04 14:50:00,78.3,68.5,30.07,ESE,112,3.8,3.8,72,0.00,CLR,,0.00,WeatherDisplay:10.37,2013-01-04 19:50:00,
2013-01-04 14:55:00,78.1,68.3,30.07,NNE,22,4.6,4.6,72,0.00,CLR,,0.00,WeatherDisplay:10.37,2013-01-04 19:55:00,
2013-01-04 15:00:00,77.9,68.1,30.07,NNW,338,4.6,4.6,72,0.00,CLR,,0.00,WeatherDisplay:10.37,2013-01-04 20:00:00,
2013-01-04 15:05:00,77.7,68.4,30.07,NNW,338,3.5,3.5,73,0.00,CLR,,0.00,WeatherDisplay:10.37,2013-01-04 20:05:00,
2013-01-04 15:10:00,77.7,68.4,30.08,NNE,22,4.6,4.6,73,0.00,CLR,,0.00,WeatherDisplay:10.37,2013-01-04 20:10:00,
2013-01-04 15:15:00,77.5,68.2,30.08,ESE,112,4.6,4.6,73,0.00,CLR,,0.00,WeatherDisplay:10.37,2013-01-04 20:15:00,
2013-01-04 15:20:00,77.5,68.2,30.08,NE,45,3.5,3.5,73,0.00,CLR,,0.00,WeatherDisplay:10.37,2013-01-04 20:20:00,
2013-01-04 15:25:00,77.4,68.4,30.08,NNE,22,4.6,4.6,74,0.00,CLR,,0.00,WeatherDisplay:10.37,2013-01-04 20:25:00,
2013-01-04 15:30:00,77.5,69.0,30.08,North,0,3.5,3.5,75,0.00,CLR,,0.00,WeatherDisplay:10.37,2013-01-04 20:30:00,
2013-01-04 15:35:00,77.4,68.4,30.08,NNE,22,6.9,6.9,74,0.00,CLR,,0.00,WeatherDisplay:10.37,2013-01-04 20:35:00,
2013-01-04 15:40:00,77.2,68.6,30.08,NNE,22,7.9,7.9,75,0.00,CLR,,0.00,WeatherDisplay:10.37,2013-01-04 20:40:00,
2013-01-04 15:45:00,77.2,68.6,30.08,NE,45,4.6,4.6,75,0.00,CLR,,0.00,WeatherDisplay:10.37,2013-01-04 20:45:00,
2013-01-04 15:50:00,76.8,68.3,30.08,NNE,22,3.5,3.5,75,0.00,CLR,,0.00,WeatherDisplay:10.37,2013-01-04 20:50:00,
2013-01-04 15:55:00,76.8,68.3,30.08,NNW,338,3.5,3.5,75,0.00,CLR,,0.00,WeatherDisplay:10.37,2013-01-04 20:55:00,
2013-01-04 16:00:00,76.6,68.1,30.08,NW,315,2.3,2.9,75,0.00,CLR,,0.00,WeatherDisplay:10.37,2013-01-04 21:00:00,
2013-01-04 16:05:00,76.6,68.1,30.08,NNE,22,4.6,4.6,75,0.00,CLR,,0.00,WeatherDisplay:10.37,2013-01-04 21:05:00,
2013-01-04 16:10:00,76.6,68.1,30.08,NNE,22,5.8,5.8,75,0.00,CLR,,0.00,WeatherDisplay:10.37,2013-01-04 21:10:00,
2013-01-04 16:15:00,76.6,68.1,30.08,NNW,338,5.9,5.9,75,0.00,CLR,,0.00,WeatherDisplay:10.37,2013-01-04 21:15:00,
2013-01-04 16:20:00,76.5,67.6,30.08,ENE,68,4.3,4.3,74,0.00,CLR,,0.00,WeatherDisplay:10.37,2013-01-04 21:20:00,
2013-01-04 16:25:00,76.5,67.6,30.08,ENE,68,4.6,4.6,74,0.00,CLR,,0.00,WeatherDisplay:10.37,2013-01-04 21:25:00,
2013-01-04 16:30:00,76.5,67.6,30.10,NE,45,4.6,4.6,74,0.00,CLR,,0.00,WeatherDisplay:10.37,2013-01-04 21:30:00,
2013-01-04 16:35:00,76.1,67.2,30.10,NW,315,3.5,3.5,74,0.00,CLR,,0.00,WeatherDisplay:10.37,2013-01-04 21:35:00,
2013-01-04 16:40:00,76.1,67.6,30.10,NNE,22,2.3,2.6,75,0.00,CLR,,0.00,WeatherDisplay:10.37,2013-01-04 21:40:00,
2013-01-04 16:45:00,75.9,67.4,30.10,ENE,68,2.6,2.6,75,0.00,CLR,,0.00,WeatherDisplay:10.37,2013-01-04 21:45:00,
2013-01-04 16:50:00,76.1,67.6,30.10,ENE,68,3.5,3.5,75,0.00,CLR,,0.00,WeatherDisplay:10.37,2013-01-04 21:50:00,
2013-01-04 16:55:00,75.9,67.8,30.10,NNE,22,5.8,5.8,76,0.00,CLR,,0.00,WeatherDisplay:10.37,2013-01-04 21:55:00,
2013-01-04 17:00:00,75.7,67.6,30.10,NE,45,2.3,2.3,76,0.00,CLR,,0.00,WeatherDisplay:10.37,2013-01-04 22:00:00,
2013-01-04 17:05:00,75.7,67.6,30.10,SE,135,2.3,2.3,76,0.00,CLR,,0.00,WeatherDisplay:10.37,2013-01-04 22:05:00,
2013-01-04 17:10:00,75.7,67.6,30.09,ESE,112,4.6,4.6,76,0.00,CLR,,0.00,WeatherDisplay:10.37,2013-01-04 22:10:00,
2013-01-04 17:15:00,75.4,67.3,30.09,NE,45,5.8,5.8,76,0.00,CLR,,0.00,WeatherDisplay:10.37,2013-01-04 22:15:00,
2013-01-04 17:20:00,75.2,67.1,30.09,SE,135,4.6,4.6,76,0.00,CLR,,0.00,WeatherDisplay:10.37,2013-01-04 22:20:00,
2013-01-04 17:25:00,75.4,67.3,30.09,NNE,22,1.3,2.0,76,0.00,CLR,,0.00,WeatherDisplay:10.37,2013-01-04 22:25:00,
2013-01-04 17:30:00,75.0,66.9,30.11,NNW,338,4.6,4.6,76,0.00,CLR,,0.00,WeatherDisplay:10.37,2013-01-04 22:30:00,
2013-01-04 17:35:00,75.0,67.3,30.11,NNE,22,3.7,3.7,77,0.00,CLR,,0.00,WeatherDisplay:10.37,2013-01-04 22:35:00,
2013-01-04 17:40:00,74.8,67.1,30.11,NNE,22,2.3,2.3,77,0.00,CLR,,0.00,WeatherDisplay:10.37,2013-01-04 22:40:00,
2013-01-04 17:45:00,74.8,67.5,30.11,NNW,338,1.4,2.0,78,0.00,CLR,,0.00,WeatherDisplay:10.37,2013-01-04 22:45:00,
2013-01-04 17:50:00,74.7,67.7,30.11,NNE,22,4.6,4.6,79,0.00,CLR,,0.00,WeatherDisplay:10.37,2013-01-04 22:50:00,
2013-01-04 17:55:00,74.7,67.7,30.11,NE,45,3.5,3.5,79,0.00,CLR,,0.00,WeatherDisplay:10.37,2013-01-04 22:55:00,
2013-01-04 18:00:00,74.5,67.5,30.11,NNE,22,3.5,3.5,79,0.00,CLR,,0.00,WeatherDisplay:10.37,2013-01-04 23:00:00,
2013-01-04 18:05:00,74.5,67.5,30.11,NNE,22,3.5,3.5,79,0.00,CLR,,0.00,WeatherDisplay:10.37,2013-01-04 23:05:00,
2013-01-04 18:10:00,74.7,67.7,30.12,NE,45,2.4,2.4,79,0.00,CLR,,0.00,WeatherDisplay:10.37,2013-01-04 23:10:00,
2013-01-04 18:16:00,74.3,67.4,30.12,NNE,22,2.3,2.3,79,0.00,CLR,,0.00,WeatherDisplay:10.37,2013-01-04 23:16:00,
2013-01-04 18:21:00,74.3,67.7,30.12,NNE,22,4.6,4.6,80,0.00,CLR,,0.00,WeatherDisplay:10.37,2013-01-04 23:21:00,
2013-01-04 18:26:00,74.1,67.6,30.12,North,0,3.5,3.5,80,0.00,CLR,,0.00,WeatherDisplay:10.37,2013-01-04 23:26:00,
2013-01-04 18:31:00,74.3,67.7,30.12,NE,45,3.5,3.5,80,0.00,CLR,,0.00,WeatherDisplay:10.37,2013-01-04 23:31:00,
2013-01-04 18:36:00,74.3,67.7,30.12,NE,45,4.6,4.6,80,0.00,CLR,,0.00,WeatherDisplay:10.37,2013-01-04 23:36:00,
2013-01-04 18:41:00,74.1,67.6,30.12,NNE,22,3.3,3.3,80,0.00,CLR,,0.00,WeatherDisplay:10.37,2013-01-04 23:41:00,
2013-01-04 18:46:00,73.9,67.4,30.12,NW,315,4.9,4.9,80,0.00,CLR,,0.00,WeatherDisplay:10.37,2013-01-04 23:46:00,
2013-01-04 18:51:00,74.1,67.6,30.13,NNE,22,2.9,2.9,80,0.00,CLR,,0.00,WeatherDisplay:10.37,2013-01-04 23:51:00,
2013-01-04 18:56:00,73.9,67.4,30.13,NNE,22,5.8,5.8,80,0.00,CLR,,0.00,WeatherDisplay:10.37,2013-01-04 23:56:00,
2013-01-04 19:01:00,73.8,67.2,30.13,NNW,338,3.5,3.5,80,0.00,CLR,,0.00,WeatherDisplay:10.37,2013-01-05 00:01:00,
2013-01-04 19:06:00,73.9,67.0,30.13,North,0,3.5,3.5,79,0.00,CLR,,0.00,WeatherDisplay:10.37,2013-01-05 00:06:00,
2013-01-04 19:11:00,73.6,66.7,30.14,NW,315,4.6,4.6,79,0.00,CLR,,0.00,WeatherDisplay:10.37,2013-01-05 00:11:00,
2013-01-04 19:16:00,73.6,67.0,30.14,SSW,202,3.5,3.5,80,0.00,CLR,,0.00,WeatherDisplay:10.37,2013-01-05 00:16:00,
2013-01-04 19:21:00,73.6,67.0,30.14,NNE,22,2.9,2.9,80,0.00,CLR,,0.00,WeatherDisplay:10.37,2013-01-05 00:21:00,
2013-01-04 19:26:00,73.4,66.9,30.14,NNW,338,4.6,4.6,80,0.00,CLR,,0.00,WeatherDisplay:10.37,2013-01-05 00:26:00,
2013-01-04 19:31:00,73.2,66.7,30.15,NE,45,3.5,3.5,80,0.00,CLR,,0.00,WeatherDisplay:10.37,2013-01-05 00:31:00,
2013-01-04 19:36:00,73.0,66.5,30.15,NE,45,0.0,1.5,80,0.00,CLR,,0.00,WeatherDisplay:10.37,2013-01-05 00:36:00,
2013-01-04 19:41:00,73.0,66.5,30.15,NE,45,2.3,2.3,80,0.00,CLR,,0.00,WeatherDisplay:10.37,2013-01-05 00:41:00,
2013-01-04 19:46:00,73.2,66.7,30.15,NW,315,0.0,0.9,80,0.00,CLR,,0.00,WeatherDisplay:10.37,2013-01-05 00:46:00,
2013-01-04 19:51:00,73.0,66.5,30.16,NNE,22,2.3,2.3,80,0.00,CLR,,0.00,WeatherDisplay:10.37,2013-01-05 00:51:00,
2013-01-04 19:56:00,73.0,66.5,30.16,NE,45,2.6,2.6,80,0.00,CLR,,0.00,WeatherDisplay:10.37,2013-01-05 00:56:00,
2013-01-04 20:01:00,72.9,66.3,30.16,NE,45,1.1,1.1,80,0.00,CLR,,0.00,WeatherDisplay:10.37,2013-01-05 01:01:00,
2013-01-04 20:06:00,72.7,66.2,30.16,NNE,22,2.3,2.3,80,0.00,CLR,,0.00,WeatherDisplay:10.37,2013-01-05 01:06:00,
2013-01-04 20:11:00,72.9,66.3,30.16,NNE,22,2.3,2.3,80,0.00,CLR,,0.00,WeatherDisplay:10.37,2013-01-05 01:11:00,
2013-01-04 20:16:00,72.9,66.3,30.16,NNE,22,2.3,2.3,80,0.00,CLR,,0.00,WeatherDisplay:10.37,2013-01-05 01:16:00,
2013-01-04 20:21:00,72.9,66.7,30.16,NNE,22,2.3,2.3,81,0.00,CLR,,0.00,WeatherDisplay:10.37,2013-01-05 01:21:00,
2013-01-04 20:26:00,72.9,66.7,30.16,NE,45,1.4,1.6,81,0.00,CLR,,0.00,WeatherDisplay:10.37,2013-01-05 01:26:00,
2013-01-04 20:31:00,72.7,66.5,30.17,North,0,2.3,2.3,81,0.00,CLR,,0.00,WeatherDisplay:10.37,2013-01-05 01:31:00,
2013-01-04 20:36:00,72.5,66.3,30.17,NNW,338,2.3,2.3,81,0.00,CLR,,0.00,WeatherDisplay:10.37,2013-01-05 01:36:00,
2013-01-04 20:41:00,72.3,66.2,30.17,NNE,22,3.5,3.5,81,0.00,CLR,,0.00,WeatherDisplay:10.37,2013-01-05 01:41:00,
2013-01-04 20:46:00,72.5,66.3,30.17,West,270,2.8,2.8,81,0.00,CLR,,0.00,WeatherDisplay:10.37,2013-01-05 01:46:00,
2013-01-04 20:51:00,72.5,66.3,30.17,NNE,22,2.6,2.6,81,0.00,CLR,,0.00,WeatherDisplay:10.37,2013-01-05 01:51:00,
2013-01-04 20:56:00,72.3,66.2,30.17,NE,45,0.0,1.1,81,0.00,CLR,,0.00,WeatherDisplay:10.37,2013-01-05 01:56:00,
2013-01-04 21:01:00,72.1,66.0,30.17,North,0,0.0,0.7,81,0.00,CLR,,0.00,WeatherDisplay:10.37,2013-01-05 02:01:00,
2013-01-04 21:06:00,72.1,66.0,30.17,NNW,338,2.3,2.3,81,0.00,CLR,,0.00,WeatherDisplay:10.37,2013-01-05 02:06:00,
2013-01-04 21:11:00,72.1,66.0,30.16,North,0,2.6,2.6,81,0.00,CLR,,0.00,WeatherDisplay:10.37,2013-01-05 02:11:00,
2013-01-04 21:16:00,72.1,66.0,30.16,NNW,338,1.1,1.1,81,0.00,CLR,,0.00,WeatherDisplay:10.37,2013-01-05 02:16:00,
2013-01-04 21:21:00,71.8,65.6,30.16,North,0,2.3,2.3,81,0.00,CLR,,0.00,WeatherDisplay:10.37,2013-01-05 02:21:00,
2013-01-04 21:26:00,71.8,65.6,30.16,ENE,68,2.3,2.3,81,0.00,CLR,,0.00,WeatherDisplay:10.37,2013-01-05 02:26:00,
2013-01-04 21:31:00,71.6,65.5,30.16,NNE,22,4.8,4.8,81,0.00,CLR,,0.00,WeatherDisplay:10.37,2013-01-05 02:31:00,
2013-01-04 21:36:00,71.8,66.0,30.16,NNE,22,4.3,4.3,82,0.00,CLR,,0.00,WeatherDisplay:10.37,2013-01-05 02:36:00,
2013-01-04 21:41:00,71.6,65.8,30.16,NW,315,3.5,3.5,82,0.00,CLR,,0.00,WeatherDisplay:10.37,2013-01-05 02:41:00,
2013-01-04 21:46:00,71.6,65.8,30.17,North,0,3.6,3.6,82,0.00,CLR,,0.00,WeatherDisplay:10.37,2013-01-05 02:46:00,
2013-01-04 21:51:00,71.4,65.6,30.17,NNE,22,2.6,2.6,82,0.00,CLR,,0.00,WeatherDisplay:10.37,2013-01-05 02:51:00,
2013-01-04 21:56:00,71.4,65.6,30.17,North,0,2.3,2.3,82,0.00,CLR,,0.00,WeatherDisplay:10.37,2013-01-05 02:56:00,
2013-01-04 22:01:00,71.2,65.1,30.17,NNE,22,7.1,7.1,81,0.00,CLR,,0.00,WeatherDisplay:10.37,2013-01-05 03:01:00,
2013-01-04 22:06:00,71.4,65.6,30.17,NNE,22,5.8,5.8,82,0.00,CLR,,0.00,WeatherDisplay:10.37,2013-01-05 03:06:00,
2013-01-04 22:11:00,71.1,65.3,30.16,NNE,22,3.8,3.8,82,0.00,CLR,,0.00,WeatherDisplay:10.37,2013-01-05 03:11:00,
2013-01-04 22:16:00,71.1,65.3,30.16,North,0,2.3,2.3,82,0.00,CLR,,0.00,WeatherDisplay:10.37,2013-01-05 03:16:00,
2013-01-04 22:21:00,71.1,65.3,30.16,NW,315,2.6,2.6,82,0.00,CLR,,0.00,WeatherDisplay:10.37,2013-01-05 03:21:00,
2013-01-04 22:26:00,71.1,65.3,30.16,NW,315,2.3,2.3,82,0.00,CLR,,0.00,WeatherDisplay:10.37,2013-01-05 03:26:00,
2013-01-04 22:31:00,71.1,64.9,30.16,NE,45,3.5,3.5,81,0.00,CLR,,0.00,WeatherDisplay:10.37,2013-01-05 03:31:00,
2013-01-04 22:36:00,70.9,65.1,30.16,NNE,22,2.3,2.3,82,0.00,CLR,,0.00,WeatherDisplay:10.37,2013-01-05 03:36:00,
2013-01-04 22:41:00,70.9,64.8,30.16,NNE,22,4.6,4.6,81,0.00,CLR,,0.00,WeatherDisplay:10.37,2013-01-05 03:41:00,
2013-01-04 22:46:00,70.9,65.1,30.16,NNE,22,4.6,4.6,82,0.00,CLR,,0.00,WeatherDisplay:10.37,2013-01-05 03:46:00,
2013-01-04 22:51:00,70.9,64.8,30.16,NNE,22,3.5,3.5,81,0.00,CLR,,0.00,WeatherDisplay:10.37,2013-01-05 03:51:00,
2013-01-04 22:56:00,70.9,65.1,30.16,NNW,338,3.5,3.5,82,0.00,CLR,,0.00,WeatherDisplay:10.37,2013-01-05 03:56:00,
2013-01-04 23:01:00,71.1,64.9,30.16,NNE,22,2.3,2.3,81,0.00,CLR,,0.00,WeatherDisplay:10.37,2013-01-05 04:01:00,
2013-01-04 23:06:00,70.9,64.8,30.16,NNE,22,3.9,3.9,81,0.00,CLR,,0.00,WeatherDisplay:10.37,2013-01-05 04:06:00,
2013-01-04 23:11:00,70.9,64.8,30.16,NW,315,3.5,3.5,81,0.00,CLR,,0.00,WeatherDisplay:10.37,2013-01-05 04:11:00,
2013-01-04 23:16:00,70.7,64.6,30.16,NNW,338,3.5,3.5,81,0.00,CLR,,0.00,WeatherDisplay:10.37,2013-01-05 04:16:00,
2013-01-04 23:21:00,70.7,64.6,30.16,ENE,68,1.4,1.4,81,0.00,CLR,,0.00,WeatherDisplay:10.37,2013-01-05 04:21:00,
2013-01-04 23:26:00,70.7,64.6,30.16,North,0,2.6,2.6,81,0.00,CLR,,0.00,WeatherDisplay:10.37,2013-01-05 04:26:00,
2013-01-04 23:31:00,70.5,64.4,30.16,NNW,338,1.1,1.1,81,0.00,CLR,,0.00,WeatherDisplay:10.37,2013-01-05 04:31:00,
2013-01-04 23:36:00,70.3,64.6,30.16,ENE,68,2.3,2.3,82,0.00,CLR,,0.00,WeatherDisplay:10.37,2013-01-05 04:36:00,
2013-01-04 23:41:00,70.3,64.6,30.16,North,0,0.0,0.7,82,0.00,CLR,,0.00,WeatherDisplay:10.37,2013-01-05 04:41:00,
2013-01-04 23:46:00,70.7,64.9,30.16,ENE,68,2.3,2.3,82,0.00,CLR,,0.00,WeatherDisplay:10.37,2013-01-05 04:46:00,
2013-01-04 23:51:00,70.7,64.9,30.16,North,0,2.3,2.3,82,0.00,CLR,,0.00,WeatherDisplay:10.37,2013-01-05 04:51:00,
2013-01-04 23:56:00,70.7,64.9,30.16,NNE,22,1.1,1.1,82,0.00,CLR,,0.00,WeatherDisplay:10.37,2013-01-05 04:56:00,